Miscellaneous Local Product
Issued by NWS Hastings, NE

Home | Current Version | Previous Version | Graphics & Text | Print | Product List | Glossary On
Versions: 1 2 3 4 5 6 7 8 9 10 11 12 13 14 15 16 17 18 19 20 21 22 23 24 25 26 27 28 29 30 31 32 33 34 35 36 37 38 39 40 41 42 43 44 45 46 47 48 49 50
910
AXUS43 KGID 151302
MISGRI

GID CWA HOURLY WEATHER ROUNDUP
NATIONAL WEATHER SERVICE HASTINGS NE
700 AM CST FRI DEC 15 2017

NOTE: "FAIR" INDICATES FEW OR NO CLOUDS BELOW 12,000 FEET WITH NO
SIGNIFICANT WEATHER AND/OR OBSTRUCTIONS TO VISIBILITY.

...SOUTH CENTRAL NEBRASKA...

CITY           SKY/WX    TMP DP  RH WIND       PRES   REMARKS
GRAND ISLAND   CLOUDY    25  22  88 SW10      30.06F WCI  15
KEARNEY        CLOUDY    21  18  88 SW8       30.06F WCI  11
HASTINGS       CLOUDY    21  18  88 SW7       30.07F WCI  12
ORD            CLOUDY    24  20  84 SW12      29.99F WCI  13
YORK           CLEAR     25  23  93 CALM      30.08F
AURORA         CLOUDY    25  22  89 W9        30.07F WCI  15
LEXINGTON      CLOUDY    21  17  84 SW3       30.04F
HOLDREGE       CLOUDY    20  18  93 SW8       30.07F WCI  10
HEBRON         CLEAR     25  22  89 SW8       30.12F WCI  16

...NEBRASKA PANHANDLE...

CITY           SKY/WX    TMP DP  RH WIND       PRES   REMARKS
CHADRON        CLOUDY    16  11  80 SW10      29.95F WCI   4
ALLIANCE       CLOUDY    18  14  84 W10       29.95F WCI   6
SCOTTSBLUFF    CLEAR     11   7  84 NW6       30.00F WCI   1
SIDNEY         CLOUDY    19  11  70 W10       30.01F WCI   7

...WESTERN AND NORTH CENTRAL NEBRASKA...

CITY           SKY/WX    TMP DP  RH WIND       PRES   REMARKS
VALENTINE      CLOUDY    24  19  81 SW8       29.93F WCI  15
AINSWORTH      CLOUDY    24  21  87 SW6       29.94S WCI  17
ONEILL         CLOUDY    25  23  91 SW6       29.96F WCI  18
BROKEN BOW     CLOUDY    21  16  81 W8        30.00F WCI  11
IMPERIAL       CLOUDY    20  14  77 W14       30.04F WCI   7
NORTH PLATTE   CLOUDY    18  14  84 W7        30.02F WCI   9
MCCOOK         CLOUDY    17  13  84 W9        30.07F WCI   6

...EASTERN NEBRASKA...

CITY           SKY/WX    TMP DP  RH WIND       PRES   REMARKS
NORFOLK        CLOUDY    27  23  85 SW10      30.00F WCI  17
SO SIOUX CITY  CLOUDY    34  26  72 W13       29.99F WCI  25
TEKAMAH        CLOUDY    32  23  69 W14       30.03S WCI  22
COLUMBUS       CLEAR     27  23  85 SW9       30.05F WCI  18
ALBION         CLEAR     27  23  85 W3        30.01F
OMAHA EPPLEY   CLOUDY    34  23  64 SW12      30.06S WCI  25
OFFUTT AFB     CLOUDY    33  25  71 SW12      30.06F WCI  24
MILLARD        CLOUDY    34  26  75 W8        30.07F WCI  27
LINCOLN        CLEAR     28  22  78 W9        30.10F WCI  19
NEBRASKA CITY  CLOUDY    31  30  94 W10       30.09F WCI  22
BEATRICE       CLEAR     25  22  85 SW6       30.12F WCI  18
FALLS CITY     CLOUDY    32  27  81 W10       30.12S WCI  24

...NORTHERN KANSAS...

CITY           SKY/WX    TMP DP  RH WIND       PRES   REMARKS
GOODLAND       CLOUDY    23  18  81 SW13      30.07F WCI  11
HILL CITY      CLOUDY    20  15  81 W8        30.13F WCI  10
NORTON         SUNNY     16  10  79 SW7       30.09F WCI   6
PHILLIPSBURG   CLEAR     18  16  93 W5        30.15S WCI  11
SMITH CENTER   CLEAR     16  14  93 SW6       30.15F WCI   7
HAYS           CLOUDY    19  16  88 W7        30.17F WCI  10
RUSSELL        CLOUDY    17  16  95 S8        30.16F WCI   7
CONCORDIA      CLEAR     24  22  91 SW7       30.15F WCI  16
SALINA         CLEAR     26  23  88 SW6       30.20F WCI  19
TOPEKA         CLOUDY    33  30  88 W8        30.17S WCI  26



USA.gov is the U.S. government's official web portal to all federal, state and local government web resources and services.